Time,TemperatureF,DewpointF,PressureIn,WindDirection,WindDirectionDegrees,WindSpeedMPH,WindSpeedGustMPH,Humidity,HourlyPrecipIn,Conditions,Clouds,dailyrainin,SoftwareType,DateUTC
2013-06-09 00:12:00,73.6,70.0,29.88,SE,142,0.0,1.0,89,0.00,,,0.00,weatherlink.com 1.10,2013-06-09 05:12:00,
2013-06-09 00:27:00,73.5,70.0,29.88,SE,142,0.0,2.0,89,0.00,,,0.00,weatherlink.com 1.10,2013-06-09 05:27:00,
2013-06-09 00:42:00,73.2,70.0,29.88,SE,131,0.0,2.0,89,0.00,,,0.00,weatherlink.com 1.10,2013-06-09 05:42:00,
2013-06-09 00:57:00,73.0,70.0,29.88,SE,131,0.0,1.0,89,0.00,,,0.00,weatherlink.com 1.10,2013-06-09 05:57:00,
2013-06-09 01:12:00,72.7,70.0,29.89,SE,131,0.0,1.0,90,0.00,,,0.00,weatherlink.com 1.10,2013-06-09 06:12:00,
2013-06-09 01:27:00,72.6,70.0,29.88,ESE,121,0.0,3.0,90,0.00,,,0.00,weatherlink.com 1.10,2013-06-09 06:27:00,
2013-06-09 01:42:00,72.5,70.0,29.88,ESE,121,0.0,1.0,91,0.00,,,0.00,weatherlink.com 1.10,2013-06-09 06:42:00,
2013-06-09 01:57:00,72.4,70.0,29.88,ESE,121,0.0,1.0,91,0.00,,,0.00,weatherlink.com 1.10,2013-06-09 06:57:00,
2013-06-09 02:12:00,72.3,70.0,29.89,ESE,121,0.0,0.0,91,0.00,,,0.00,weatherlink.com 1.10,2013-06-09 07:12:00,
2013-06-09 02:27:00,72.0,70.0,29.88,ESE,121,0.0,1.0,92,0.00,,,0.00,weatherlink.com 1.10,2013-06-09 07:27:00,
2013-06-09 02:42:00,71.7,69.0,29.87,ESE,121,0.0,0.0,92,0.00,,,0.00,weatherlink.com 1.10,2013-06-09 07:42:00,
2013-06-09 02:57:00,71.4,69.0,29.87,ESE,121,0.0,0.0,92,0.00,,,0.00,weatherlink.com 1.10,2013-06-09 07:57:00,
2013-06-09 03:12:00,71.1,69.0,29.87,ESE,121,0.0,0.0,92,0.00,,,0.00,weatherlink.com 1.10,2013-06-09 08:12:00,
2013-06-09 03:27:00,70.8,69.0,29.87,ESE,121,0.0,0.0,93,0.00,,,0.00,weatherlink.com 1.10,2013-06-09 08:27:00,
2013-06-09 03:42:00,70.6,69.0,29.86,ESE,121,0.0,0.0,93,0.00,,,0.00,weatherlink.com 1.10,2013-06-09 08:42:00,
2013-06-09 03:58:00,70.3,68.0,29.87,ESE,121,0.0,0.0,93,0.00,,,0.00,weatherlink.com 1.10,2013-06-09 08:58:00,
2013-06-09 04:13:00,70.2,68.0,29.87,ESE,121,0.0,0.0,93,0.00,,,0.00,weatherlink.com 1.10,2013-06-09 09:13:00,
2013-06-09 04:28:00,70.1,68.0,29.87,ESE,121,0.0,0.0,94,0.00,,,0.00,weatherlink.com 1.10,2013-06-09 09:28:00,
2013-06-09 04:43:00,70.0,68.0,29.88,ESE,121,0.0,0.0,94,0.00,,,0.00,weatherlink.com 1.10,2013-06-09 09:43:00,
2013-06-09 04:58:00,69.9,68.0,29.88,ESE,121,0.0,0.0,94,0.00,,,0.00,weatherlink.com 1.10,2013-06-09 09:58:00,
2013-06-09 05:13:00,69.7,68.0,29.88,ESE,121,0.0,0.0,94,0.00,,,0.00,weatherlink.com 1.10,2013-06-09 10:13:00,
2013-06-09 05:28:00,69.6,68.0,29.88,ESE,121,0.0,0.0,94,0.00,,,0.00,weatherlink.com 1.10,2013-06-09 10:28:00,
2013-06-09 05:43:00,69.5,68.0,29.88,ESE,121,0.0,0.0,95,0.00,,,0.00,weatherlink.com 1.10,2013-06-09 10:43:00,
2013-06-09 05:58:00,69.6,68.0,29.87,SE,125,0.0,2.0,95,0.00,,,0.00,weatherlink.com 1.10,2013-06-09 10:58:00,
2013-06-09 06:13:00,69.8,68.0,29.88,SE,125,1.0,2.0,95,0.00,,,0.00,weatherlink.com 1.10,2013-06-09 11:13:00,
2013-06-09 06:28:00,70.1,69.0,29.88,SE,138,0.0,2.0,95,0.00,,,0.00,weatherlink.com 1.10,2013-06-09 11:28:00,
2013-06-09 06:43:00,70.2,69.0,29.87,SE,138,0.0,1.0,95,0.00,,,0.00,weatherlink.com 1.10,2013-06-09 11:43:00,
2013-06-09 06:58:00,70.4,69.0,29.88,SE,138,0.0,1.0,96,0.00,,,0.00,weatherlink.com 1.10,2013-06-09 11:58:00,
2013-06-09 07:13:00,71.0,70.0,29.88,SE,138,0.0,1.0,96,0.00,,,0.00,weatherlink.com 1.10,2013-06-09 12:13:00,
2013-06-09 07:28:00,72.0,71.0,29.88,SE,138,0.0,2.0,96,0.00,,,0.00,weatherlink.com 1.10,2013-06-09 12:28:00,
2013-06-09 07:43:00,73.1,72.0,29.88,South,169,0.0,1.0,96,0.00,,,0.00,weatherlink.com 1.10,2013-06-09 12:43:00,
2013-06-09 07:58:00,74.4,73.0,29.87,SW,217,0.0,3.0,96,0.00,,,0.00,weatherlink.com 1.10,2013-06-09 12:58:00,
2013-06-09 08:13:00,76.0,74.0,29.87,SW,235,0.0,3.0,93,0.00,,,0.00,weatherlink.com 1.10,2013-06-09 13:13:00,
2013-06-09 08:28:00,77.6,74.0,29.88,SSE,152,1.0,5.0,88,0.00,,,0.00,weatherlink.com 1.10,2013-06-09 13:28:00,
2013-06-09 08:43:00,79.3,75.0,29.89,ESE,121,0.0,4.0,86,0.00,,,0.00,weatherlink.com 1.10,2013-06-09 13:43:00,
2013-06-09 08:58:00,80.7,75.0,29.90,South,178,3.0,6.0,83,0.00,,,0.00,weatherlink.com 1.10,2013-06-09 13:58:00,
2013-06-09 09:13:00,81.7,75.0,29.90,South,184,3.0,8.0,80,0.00,,,0.00,weatherlink.com 1.10,2013-06-09 14:13:00,
2013-06-09 09:28:00,82.6,75.0,29.89,South,170,2.0,7.0,78,0.00,,,0.00,weatherlink.com 1.10,2013-06-09 14:28:00,
2013-06-09 09:43:00,83.3,75.0,29.89,SSW,196,5.0,7.0,75,0.00,,,0.00,weatherlink.com 1.10,2013-06-09 14:43:00,
2013-06-09 09:58:00,84.1,74.0,29.90,South,186,6.0,7.0,72,0.00,,,0.00,weatherlink.com 1.10,2013-06-09 14:58:00,
2013-06-09 10:13:00,84.4,74.0,29.91,South,175,2.0,6.0,72,0.00,,,0.00,weatherlink.com 1.10,2013-06-09 15:13:00,
2013-06-09 10:28:00,84.1,75.0,29.91,South,182,1.0,7.0,73,0.00,,,0.00,weatherlink.com 1.10,2013-06-09 15:28:00,
2013-06-09 10:43:00,85.4,75.0,29.91,South,190,3.0,8.0,71,0.00,,,0.00,weatherlink.com 1.10,2013-06-09 15:43:00,
2013-06-09 10:58:00,86.2,75.0,29.90,SW,236,3.0,7.0,69,0.00,,,0.00,weatherlink.com 1.10,2013-06-09 15:58:00,
2013-06-09 11:13:00,86.2,76.0,29.89,SW,234,6.0,6.0,71,0.00,,,0.00,weatherlink.com 1.10,2013-06-09 16:13:00,
2013-06-09 11:28:00,86.3,75.0,29.89,South,177,0.0,6.0,69,0.00,,,0.00,weatherlink.com 1.10,2013-06-09 16:28:00,
2013-06-09 11:43:00,85.7,76.0,29.89,WSW,246,0.0,5.0,73,0.00,,,0.00,weatherlink.com 1.10,2013-06-09 16:43:00,
2013-06-09 11:58:00,85.8,77.0,29.88,SSW,205,0.0,3.0,76,0.00,,,0.00,weatherlink.com 1.10,2013-06-09 16:58:00,
2013-06-09 12:13:00,84.4,74.0,29.89,NW,305,2.0,8.0,70,0.00,,,0.00,weatherlink.com 1.10,2013-06-09 17:13:00,
2013-06-09 12:29:00,82.2,74.0,29.88,West,267,0.0,2.0,77,0.00,,,0.00,weatherlink.com 1.10,2013-06-09 17:29:00,
2013-06-09 12:44:00,79.2,72.0,29.87,West,267,0.0,1.0,78,0.00,,,0.00,weatherlink.com 1.10,2013-06-09 17:44:00,
2013-06-09 12:59:00,81.7,73.0,29.87,NNW,336,0.0,3.0,75,0.00,,,0.00,weatherlink.com 1.10,2013-06-09 17:59:00,
2013-06-09 13:14:00,82.2,74.0,29.85,NNW,343,1.0,3.0,75,0.00,,,0.00,weatherlink.com 1.10,2013-06-09 18:14:00,
2013-06-09 13:29:00,82.3,73.0,29.85,NNW,342,0.0,2.0,74,0.00,,,0.00,weatherlink.com 1.10,2013-06-09 18:29:00,
2013-06-09 13:44:00,84.8,75.0,29.86,SW,236,2.0,4.0,72,0.00,,,0.00,weatherlink.com 1.10,2013-06-09 18:44:00,
2013-06-09 13:59:00,86.0,74.0,29.85,WSW,253,1.0,5.0,68,0.00,,,0.00,weatherlink.com 1.10,2013-06-09 18:59:00,
2013-06-09 14:14:00,86.7,74.0,29.86,WNW,295,1.0,4.0,66,0.00,,,0.00,weatherlink.com 1.10,2013-06-09 19:14:00,
2013-06-09 14:29:00,87.7,76.0,29.86,West,278,0.0,4.0,68,0.00,,,0.00,weatherlink.com 1.10,2013-06-09 19:29:00,
2013-06-09 14:44:00,87.2,75.0,29.86,SW,226,1.0,3.0,67,0.00,,,0.00,weatherlink.com 1.10,2013-06-09 19:44:00,
2013-06-09 14:59:00,87.2,76.0,29.87,SSE,167,2.0,5.0,69,0.00,,,0.00,weatherlink.com 1.10,2013-06-09 19:59:00,
2013-06-09 15:14:00,85.8,76.0,29.88,SSW,192,4.0,9.0,73,0.00,,,0.00,weatherlink.com 1.10,2013-06-09 20:14:00,
2013-06-09 15:29:00,79.2,71.0,29.91,SSE,155,4.0,20.0,76,0.00,,,0.00,weatherlink.com 1.10,2013-06-09 20:29:00,
2013-06-09 15:44:00,74.9,70.0,29.91,South,183,0.0,8.0,85,0.00,,,0.00,weatherlink.com 1.10,2013-06-09 20:44:00,
2013-06-09 15:59:00,73.9,70.0,29.89,SW,215,0.0,1.0,88,0.00,,,0.00,weatherlink.com 1.10,2013-06-09 20:59:00,
2013-06-09 16:14:00,73.4,70.0,29.87,South,179,0.0,3.0,90,0.00,,,0.00,weatherlink.com 1.10,2013-06-09 21:14:00,
2013-06-09 16:29:00,73.0,70.0,29.85,South,179,0.0,1.0,90,0.00,,,0.00,weatherlink.com 1.10,2013-06-09 21:29:00,
2013-06-09 16:44:00,72.6,70.0,29.84,South,179,0.0,1.0,91,0.00,,,0.00,weatherlink.com 1.10,2013-06-09 21:44:00,
2013-06-09 16:59:00,72.6,70.0,29.82,South,179,0.0,2.0,91,0.00,,,0.00,weatherlink.com 1.10,2013-06-09 21:59:00,
2013-06-09 17:14:00,72.6,70.0,29.83,South,179,0.0,1.0,92,0.00,,,0.00,weatherlink.com 1.10,2013-06-09 22:14:00,
2013-06-09 17:29:00,72.9,71.0,29.83,South,179,0.0,1.0,93,0.00,,,0.00,weatherlink.com 1.10,2013-06-09 22:29:00,
2013-06-09 17:44:00,73.0,71.0,29.83,SW,225,0.0,1.0,93,0.00,,,0.00,weatherlink.com 1.10,2013-06-09 22:44:00,
2013-06-09 17:59:00,73.4,71.0,29.84,SW,225,0.0,1.0,93,0.00,,,0.00,weatherlink.com 1.10,2013-06-09 22:59:00,
2013-06-09 18:14:00,73.6,71.0,29.83,NNE,27,1.0,4.0,91,0.00,,,0.00,weatherlink.com 1.10,2013-06-09 23:14:00,
2013-06-09 18:29:00,75.7,72.0,29.84,NNE,27,0.0,2.0,89,0.00,,,0.00,weatherlink.com 1.10,2013-06-09 23:29:00,
2013-06-09 18:44:00,76.6,71.0,29.83,NE,45,0.0,3.0,83,0.00,,,0.00,weatherlink.com 1.10,2013-06-09 23:44:00,
2013-06-09 18:59:00,77.3,73.0,29.83,NE,46,0.0,1.0,85,0.00,,,0.00,weatherlink.com 1.10,2013-06-09 23:59:00,
2013-06-09 19:14:00,77.5,73.0,29.84,NE,46,0.0,1.0,86,0.00,,,0.00,weatherlink.com 1.10,2013-06-10 00:14:00,
2013-06-09 19:29:00,77.0,72.0,29.85,ESE,119,0.0,1.0,85,0.00,,,0.00,weatherlink.com 1.10,2013-06-10 00:29:00,
2013-06-09 19:44:00,76.4,72.0,29.85,ESE,119,0.0,1.0,87,0.00,,,0.00,weatherlink.com 1.10,2013-06-10 00:44:00,
2013-06-09 19:59:00,75.6,72.0,29.84,ESE,103,0.0,1.0,89,0.00,,,0.00,weatherlink.com 1.10,2013-06-10 00:59:00,
2013-06-09 20:14:00,74.7,72.0,29.84,ESE,103,0.0,1.0,90,0.00,,,0.00,weatherlink.com 1.10,2013-06-10 01:14:00,
2013-06-09 20:29:00,74.3,71.0,29.85,ESE,103,0.0,2.0,90,0.00,,,0.00,weatherlink.com 1.10,2013-06-10 01:29:00,
2013-06-09 20:44:00,73.7,71.0,29.86,ESE,103,0.0,0.0,91,0.00,,,0.00,weatherlink.com 1.10,2013-06-10 01:44:00,
2013-06-09 20:59:00,73.3,71.0,29.86,ESE,103,0.0,0.0,92,0.00,,,0.00,weatherlink.com 1.10,2013-06-10 01:59:00,
2013-06-09 21:14:00,72.8,70.0,29.88,ESE,103,0.0,0.0,92,0.00,,,0.00,weatherlink.com 1.10,2013-06-10 02:14:00,
2013-06-09 21:29:00,72.5,70.0,29.89,ESE,103,0.0,0.0,92,0.00,,,0.00,weatherlink.com 1.10,2013-06-10 02:29:00,
2013-06-09 21:44:00,72.2,70.0,29.89,ESE,103,0.0,0.0,93,0.00,,,0.00,weatherlink.com 1.10,2013-06-10 02:44:00,
2013-06-09 21:59:00,72.1,70.0,29.90,South,172,1.0,4.0,94,0.00,,,0.00,weatherlink.com 1.10,2013-06-10 02:59:00,
2013-06-09 22:14:00,72.0,70.0,29.91,South,179,0.0,2.0,94,0.00,,,0.00,weatherlink.com 1.10,2013-06-10 03:14:00,
2013-06-09 22:29:00,71.9,70.0,29.92,South,179,0.0,1.0,94,0.00,,,0.00,weatherlink.com 1.10,2013-06-10 03:29:00,
2013-06-09 22:44:00,71.7,70.0,29.93,South,179,0.0,0.0,94,0.00,,,0.00,weatherlink.com 1.10,2013-06-10 03:44:00,
2013-06-09 22:59:00,71.5,70.0,29.93,South,179,0.0,1.0,94,0.00,,,0.00,weatherlink.com 1.10,2013-06-10 03:59:00,
2013-06-09 23:14:00,71.3,70.0,29.93,South,179,1.0,1.0,94,0.00,,,0.00,weatherlink.com 1.10,2013-06-10 04:14:00,
2013-06-09 23:29:00,71.1,69.0,29.93,South,179,0.0,0.0,94,0.00,,,0.00,weatherlink.com 1.10,2013-06-10 04:29:00,
2013-06-09 23:44:00,70.7,69.0,29.93,South,179,0.0,0.0,94,0.00,,,0.00,weatherlink.com 1.10,2013-06-10 04:44:00,
2013-06-09 23:59:00,70.5,69.0,29.93,South,179,0.0,1.0,94,0.00,,,0.00,weatherlink.com 1.10,2013-06-10 04:59:00,